This is the latest recevied weather packets stored in our database for station/object VK4AB-13. If no packets are shown the sender has not sent any weather packets the latest 10 day(s).
| Time | Temp. | Humidity | Pressure | Rain* | Wind** | Luminosity | Snow |
|---|---|---|---|---|---|---|---|
| 1778187522 | 9.44° C | 60% | 1020.2 hPa | 0 mm | - | 19 W/m² | - |
| 1778187222 | 9.44° C | 60% | 1020 hPa | 0 mm | - | 18 W/m² | - |
| 1778186922 | 9.44° C | 60% | 1020 hPa | 0 mm | - | 16 W/m² | - |
| 1778186622 | 9.44° C | 60% | 1020.1 hPa | 0 mm | - | 14 W/m² | - |
| 1778186322 | 9.44° C | 61% | 1019.9 hPa | 0 mm | - | 11 W/m² | - |
| 1778186022 | 9.44° C | 61% | 1019.9 hPa | 0 mm | - | 11 W/m² | - |
| 1778185722 | 9.44° C | 61% | 1020 hPa | 0 mm | - | 9 W/m² | - |
| 1778185422 | 9.44° C | 61% | 1019.9 hPa | 0 mm | - | 5 W/m² | - |
| 1778185122 | 9.44° C | 61% | 1019.8 hPa | 0 mm | - | 0 W/m² | - |
| 1778184822 | 10° C | 61% | 1019.8 hPa | 0 mm | - | 0 W/m² | - |
| 1778184522 | 10° C | 61% | 1019.9 hPa | 0 mm | - | 0 W/m² | - |
| 1778184222 | 10° C | 61% | 1019.7 hPa | 0 mm | - | 0 W/m² | - |
| 1778183922 | 10° C | 61% | 1019.6 hPa | 0 mm | - | 0 W/m² | - |
| 1778183622 | 10° C | 61% | 1019.7 hPa | 0 mm | - | 0 W/m² | - |
| 1778183322 | 10° C | 61% | 1019.4 hPa | 0 mm | - | 0 W/m² | - |
| 1778183022 | 10° C | 61% | 1019.3 hPa | 0 mm | - | 0 W/m² | - |
| 1778182722 | 10° C | 60% | 1019.2 hPa | 0 mm | - | 0 W/m² | - |
| 1778182422 | 10.56° C | 62% | 1019.2 hPa | 0 mm | - | 0 W/m² | - |
| 1778182122 | 10.56° C | 61% | 1019.2 hPa | 0 mm | - | 0 W/m² | - |
| 1778181822 | 10.56° C | 62% | 1019.1 hPa | 0 mm | - | 0 W/m² | - |
| 1778181522 | 10.56° C | 62% | 1019.2 hPa | 0 mm | - | 0 W/m² | - |
| 1778181223 | 10.56° C | 61% | 1019.1 hPa | 0 mm | - | 0 W/m² | - |
| 1778180922 | 10.56° C | 62% | 1019 hPa | 0 mm | - | 0 W/m² | - |
| 1778180622 | 10.56° C | 61% | 1018.9 hPa | 0 mm | - | 0 W/m² | - |
| 1778180322 | 10.56° C | 60% | 1018.9 hPa | 0 mm | - | 0 W/m² | - |
* Rain latest hour (hover to see other rain measurements)
** Current wind speed in m/s (hover to see current wind gust speed)